Location: Dzierzno
(50.6159°N, 19.2852°E)
Time: 08:37:59
(UTC+00:00)

Cosmos 1627 Rocket - Pass Details

Date: 18 November 2025
Orbit: 949 x 1003 km, 82.9° (Epoch: 13 December)

Event Time Altitude Azimuth Distance (km) Brightness Sun altitude
Rises 17:00:07 0° 352° (N) 3,636 7.5 -19.9°
Reaches altitude 10° 17:02:40 10° 356° (N) 2,688 6.8 -20.3°
Maximum altitude 17:08:43 59° 76° (ENE) 1,098 4.4 -21.2°
Drops below altitude 10° 17:14:47 10° 155° (SSE) 2,693 6.6 -22.2°
Sets 17:17:20 0° 160° (SSE) 3,642 7.3 -22.6°
